Temperature
17 17 17 17 17 17 17 17 17 16 16 16 16 15 15 15 15 15 15 15 14 14 14 14 14 13 13 13 13 13 12 12 12 12 12 11 11 11
17 17 17 17 17 17 17 17 17 17 16 15 15 15 15 15 14 14 14 14 14 14 13 13 13 13 13 12 12 12 12 11 11 11 11 11 11 10
17 16 17 17 16 16 16 16 16 16 16 15 15 14 14 14 14 14 13 13 13 13 13 12 12 12 12 12 11 11 11 11 10 10 10 10 10 10
16 16 16 16 16 16 16 16 16 16 15 15 14 14 14 13 13 13 13 12 12 12 12 12 12 11 11 11 11 10 10 10 10 10 10 9 9 9
16 16 16 16 16 15 15 15 15 15 15 15 14 13 13 13 13 12 12 12 11 11 11 11 11 11 10 10 10 10 10 9 9 9 9 9 8 8
16 16 15 15 15 15 15 15 15 15 14 14 13 13 13 12 12 12 11 11 11 11 10 10 10 10 10 9 9 9 9 9 9 8 8 8 8 7
15 15 15 15 15 15 14 14 14 14 14 13 13 12 12 12 12 11 11 11 10 10 10 10 9 9 9 9 9 8 8 8 8 8 7 7 7 7
15 15 15 14 14 14 14 14 14 14 13 13 12 12 12 12 11 11 11 10 10 9 9 9 9 8 8 8 8 8 8 8 7 7 7 7 7 6
14 14 14 14 14 14 14 13 13 13 13 12 12 12 12 11 11 11 10 10 10 10 9 9 8 8 8 8 8 7 7 7 7 7 7 6 6 6
14 14 13 13 13 13 13 13 13 12 12 12 12 11 11 11 11 10 10 10 9 9 9 9 8 8 8 8 7 7 7 7 7 7 6 6 6 6
13 13 13 13 12 12 12 12 12 12 11 11 11 11 11 10 10 10 10 9 9 9 9 8 8 8 7 7 7 7 7 7 6 6 6 6 6 6
13 13 12 12 12 12 12 12 11 11 11 11 10 10 10 10 10 10 9 9 9 8 8 8 8 8 7 7 7 7 7 6 6 6 6 6 6 6
12 12 12 12 11 11 11 11 11 10 10 10 10 10 9 9 9 9 9 9 9 8 8 8 8 8 7 7 7 7 6 6 6 6 6 6 5 5
12 12 11 11 11 11 11 10 10 10 10 9 9 9 9 9 9 9 9 9 8 8 8 8 7 7 7 7 7 7 6 6 6 6 6 5 5 5
11 11 11 10 10 10 10 10 9 9 9 9 9 8 8 8 8 8 8 8 8 7 7 7 7 7 7 7 7 7 6 6 6 6 5 5 5 5
10 10 10 10 9 9 9 9 9 9 9 9 8 8 8 8 8 8 8 7 7 7 7 7 7 7 7 7 7 7 6 6 6 6 5 5 5 5
10 10 9 9 9 9 9 9 9 9 8 8 8 8 8 8 7 7 8 7 7 7 7 7 7 7 7 7 7 6 6 6 6 6 5 5 5 5
9 9 9 9 8 8 8 8 8 8 8 8 8 8 8 8 7 7 7 7 7 7 7 7 7 6 6 6 6 6 6 6 6 6 6 5 5 5
9 9 9 8 8 8 8 8 8 8 8 8 8 7 7 7 7 7 7 7 7 7 7 6 6 6 6 6 6 6 6 6 6 6 6 5 5 5
9 8 8 8 8 8 8 8 8 7 7 7 7 7 7 7 7 7 7 7 7 7 7 6 6 6 6 6 6 6 6 6 6 6 6 6 5 5
8 8 8 8 8 8 8 8 7 7 7 7 7 7 7 7 7 7 7 7 7 7 7 6 6 6 6 6 6 6 6 6 6 6 6 6 6 5
8 8 8 8 8 8 7 7 7 7 7 7 7 7 7 7 7 7 7 7 7 6 6 6 6 6 6 6 6 6 6 6 6 6 6 6 6 6
8 8 8 8 7 7 7 7 7 7 7 7 7 6 6 6 6 6 6 6 6 6 6 6 6 6 6 6 6 6 6 6 6 6 6 6 6 6
Wind_Speed
4 4 3 3 2 2 1 2 3 2 2 1 1 3 7 9 11 12 12 13 13 13 13 12 12 12 12 12 12 12 12 11 10 10 10 9 9 10
2 2 2 2 2 1 1 1 2 2 2 1 1 3 6 9 12 12 13 14 13 14 14 13 12 13 13 14 14 14 13 12 11 11 11 10 10 9
2 2 2 2 1 1 1 1 2 3 3 2 2 3 4 7 8 11 12 12 12 14 14 14 14 15 15 15 14 14 13 12 11 11 10 9 9 8
2 2 2 1 1 1 1 1 2 3 4 5 3 3 3 6 7 7 9 11 12 14 16 16 16 16 15 15 14 13 12 11 10 10 9 8 7 7
1 1 1 1 1 1 1 1 1 3 4 5 4 3 3 4 6 6 8 9 11 13 14 15 15 15 14 13 12 12 11 10 10 8 7 7 6 6
1 1 2 1 0 1 1 2 3 4 5 5 5 4 4 4 5 5 5 4 5 9 10 12 13 13 12 11 10 10 9 9 8 7 6 6 5 5
3 3 4 5 5 3 2 2 2 3 4 5 5 4 4 4 4 4 6 5 4 4 5 7 9 8 9 9 8 8 7 6 5 5 4 4 4 3
4 4 4 5 7 9 9 8 6 4 4 4 4 5 4 3 3 5 5 5 3 3 4 4 6 4 7 8 8 8 7 5 4 3 3 2 1 2
4 3 4 5 6 6 8 10 10 10 6 4 4 4 4 4 5 5 4 4 3 4 3 3 3 4 7 9 11 9 8 6 5 4 2 1 1 3
6 5 5 5 5 5 7 8 8 7 7 5 5 4 4 4 4 5 6 4 3 3 3 2 3 3 6 9 11 11 9 8 7 6 5 4 4 5
6 6 6 7 7 7 8 8 8 7 11 13 11 10 10 9 6 3 4 5 3 2 1 1 2 3 3 4 10 12 11 10 9 8 8 7 7 7
6 7 10 8 7 7 7 7 7 6 6 7 7 7 7 8 7 3 2 3 4 2 1 0 1 1 2 2 6 9 9 10 11 11 11 10 9 8
5 5 5 7 8 8 7 6 7 6 5 6 5 5 5 5 5 7 5 3 3 2 2 1 1 1 1 1 2 4 6 5 7 8 10 11 12 10
5 5 5 7 8 8 6 6 6 4 4 4 5 4 5 5 4 7 8 9 7 6 4 2 1 1 0 0 0 1 2 3 4 4 5 7 10 10
6 8 8 8 7 6 6 4 2 1 3 4 5 5 4 4 5 5 6 7 6 7 6 4 1 1 0 0 0 0 1 1 2 2 2 3 5 6
7 8 7 5 4 4 4 2 1 2 4 4 5 5 4 3 3 3 3 4 4 3 3 4 2 1 1 1 1 1 0 1 1 1 1 4 7 7
6 5 4 3 3 2 2 2 2 3 3 4 4 4 4 3 3 2 1 2 3 3 3 2 4 3 3 1 1 0 1 1 1 2 2 3 4 6
5 4 4 3 3 3 3 2 2 2 3 3 3 3 3 3 3 2 1 1 2 2 2 2 1 0 1 0 1 1 1 1 1 2 2 3 3 4
3 3 3 3 3 3 3 3 2 2 2 2 3 2 2 3 3 2 2 1 2 2 2 1 1 1 1 1 2 4 2 2 2 2 2 3 4 4
3 3 3 3 3 2 2 3 3 3 2 2 2 2 2 2 2 2 2 1 1 1 1 1 1 1 1 2 2 3 7 4 2 3 3 3 4 7
4 3 3 3 3 2 2 2 3 3 2 2 2 2 1 1 1 1 2 2 1 1 1 1 2 3 2 2 3 3 3 8 7 4 4 4 4 4
3 3 3 3 3 3 3 2 2 3 3 2 3 2 1 1 1 1 1 2 2 1 0 1 3 3 2 3 4 4 3 4 8 12 12 10 4 4
3 3 3 3 3 3 3 3 3 3 3 2 2 2 2 2 2 2 1 1 1 1 1 1 1 2 3 3 4 4 5 4 4 4 6 13 17 20
Wind_Direction
231 235 245 252 255 264 235 199 195 218 219 171 123 96 113 116 124 119 117 125 124 121 117 113 111 108 107 105 103 100 95 91 88 86 84 80 76 74
218 230 256 267 268 259 243 231 205 200 207 156 132 131 116 112 118 117 113 114 116 118 117 116 113 110 107 104 101 97 93 89 86 84 82 80 78 73
230 229 233 252 264 277 263 230 192 167 174 158 123 115 117 117 115 117 115 111 108 112 114 113 111 107 105 103 101 98 95 92 89 84 81 77 75 68
226 230 238 220 201 252 256 239 181 171 163 157 147 133 119 124 122 121 120 115 112 112 113 111 110 108 106 105 103 101 99 95 91 88 83 78 74 67
201 209 221 188 214 246 219 188 160 153 141 146 148 141 132 129 122 119 114 114 117 118 116 115 115 113 111 110 109 106 101 98 94 90 85 83 79 72
68 63 57 56 262 226 183 142 133 134 138 144 143 144 141 138 137 137 124 114 117 123 121 124 122 119 118 118 116 112 107 101 94 89 84 80 73 65
83 81 83 84 73 73 91 94 125 143 146 148 151 146 151 161 165 154 135 123 110 131 133 137 136 134 133 129 128 128 125 117 109 100 93 84 69 50
102 96 95 87 84 79 77 73 78 114 136 144 151 153 157 160 151 144 144 148 153 153 142 148 149 146 143 145 150 151 149 144 139 129 116 101 67 19
93 90 86 86 87 90 83 74 63 63 80 123 144 156 157 164 157 153 157 147 147 156 150 148 146 147 148 154 162 166 171 173 175 175 172 180 270 299
71 73 81 73 69 87 91 81 70 59 68 77 99 117 132 144 161 159 151 129 113 125 143 160 153 155 149 159 174 182 190 195 197 202 214 239 268 291
75 69 79 80 65 89 101 99 92 79 75 84 91 101 107 108 109 131 153 158 151 141 111 143 145 148 151 169 192 196 202 208 216 225 235 251 268 288
88 77 71 77 74 86 108 109 105 100 99 95 89 94 102 102 97 96 138 159 146 131 119 97 137 144 171 169 182 198 211 224 230 237 244 251 259 270
105 94 79 77 81 84 97 106 120 122 118 114 110 103 95 87 82 76 72 99 115 106 115 104 81 55 101 149 173 185 198 219 227 240 245 250 255 251
108 106 101 94 91 91 95 107 117 118 126 121 112 105 99 95 90 87 87 85 92 110 113 90 97 128 130 17 197 169 191 211 207 222 245 257 259 254
100 108 115 112 106 100 101 99 97 114 113 107 102 98 98 105 112 108 100 101 101 109 111 102 73 80 336 321 159 203 223 227 215 215 249 262 256 248
110 110 107 99 101 110 114 110 83 78 99 105 111 117 124 133 138 142 149 153 134 124 153 170 181 170 258 295 240 224 181 232 232 196 257 273 275 264
130 133 130 129 139 146 135 123 116 110 104 112 121 129 130 123 115 105 111 136 132 138 158 196 206 220 237 234 263 237 219 260 225 197 245 265 260 268
135 143 151 156 152 145 139 134 124 119 121 124 122 125 130 136 135 136 135 115 113 121 133 142 139 260 278 335 216 273 285 280 277 242 257 271 275 274
149 157 151 150 149 151 149 137 125 112 106 113 119 120 129 134 134 138 146 142 116 110 109 105 76 22 340 309 268 248 255 270 275 271 270 278 276 268
179 166 158 154 150 151 143 129 125 121 126 128 123 123 131 139 143 148 127 83 83 89 145 144 128 115 312 303 285 264 249 234 247 265 276 276 273 280
184 174 162 154 157 147 127 126 131 135 141 135 126 126 131 158 171 149 122 125 212 251 239 150 162 195 226 260 273 265 249 244 240 236 253 271 278 280
179 159 157 155 149 143 138 146 151 147 152 160 143 154 178 208 201 203 174 189 217 246 273 184 193 210 238 264 279 283 276 264 261 261 259 256 249 259
175 166 170 172 165 162 161 176 184 164 162 180 165 176 197 207 222 211 210 234 244 237 258 258 237 242 260 266 280 289 296 293 282 271 268 269 262 259
Height
1554 1556 1556 1557 1558 1558 1559 1560 1561 1561 1562 1563 1564 1564 1564 1565 1566 1567 1567 1568 1569 1570 1570 1571 1572 1573 1573 1573 1573 1573 1573 1574 1574 1574 1573 1573 1573 1573
1551 1552 1553 1553 1554 1555 1555 1556 1557 1558 1559 1560 1560 1561 1562 1562 1563 1564 1565 1566 1567 1568 1568 1569 1570 1570 1570 1570 1571 1571 1571 1571 1571 1571 1571 1571 1570 1570
1548 1549 1549 1550 1550 1551 1552 1552 1553 1554 1555 1556 1557 1558 1559 1560 1561 1562 1563 1563 1564 1566 1566 1567 1568 1568 1568 1568 1569 1569 1569 1569 1569 1569 1569 1568 1568 1568
1544 1545 1546 1546 1547 1547 1548 1548 1549 1550 1551 1552 1553 1555 1557 1558 1558 1560 1560 1561 1562 1564 1565 1565 1566 1566 1566 1567 1567 1567 1567 1567 1567 1567 1566 1566 1566 1565
1541 1542 1542 1543 1543 1544 1544 1545 1546 1546 1547 1548 1550 1552 1554 1555 1556 1558 1558 1559 1561 1562 1563 1564 1565 1565 1565 1565 1565 1565 1565 1565 1565 1565 1565 1564 1564 1563
1538 1539 1539 1540 1540 1541 1541 1542 1542 1543 1544 1545 1546 1548 1551 1552 1554 1555 1556 1558 1559 1560 1561 1562 1563 1564 1564 1564 1564 1564 1564 1564 1564 1564 1563 1563 1562 1562
1536 1536 1536 1537 1537 1538 1539 1539 1540 1540 1541 1542 1544 1546 1548 1549 1551 1552 1554 1556 1558 1559 1560 1561 1562 1562 1563 1563 1564 1564 1563 1563 1563 1562 1562 1562 1561 1561
1534 1534 1534 1535 1535 1536 1537 1537 1538 1538 1539 1540 1541 1543 1545 1547 1548 1550 1551 1554 1555 1558 1558 1559 1560 1561 1562 1562 1563 1563 1562 1562 1562 1561 1561 1561 1560 1560
1532 1533 1533 1533 1534 1534 1535 1536 1536 1537 1538 1539 1539 1540 1542 1543 1546 1547 1549 1551 1553 1555 1557 1558 1559 1560 1561 1562 1562 1562 1562 1561 1561 1561 1560 1560 1559 1559
1531 1532 1532 1532 1533 1533 1534 1534 1535 1536 1537 1537 1538 1539 1541 1542 1544 1546 1548 1550 1552 1554 1556 1557 1558 1559 1560 1561 1561 1561 1561 1561 1561 1560 1560 1559 1558 1558
1531 1531 1532 1532 1533 1533 1533 1533 1534 1535 1536 1537 1538 1539 1540 1542 1543 1545 1547 1549 1550 1552 1554 1555 1556 1557 1558 1559 1560 1560 1560 1560 1560 1559 1559 1558 1557 1557
1530 1531 1531 1532 1532 1533 1534 1534 1534 1535 1536 1537 1538 1539 1540 1541 1542 1544 1545 1547 1548 1550 1552 1554 1555 1556 1557 1557 1558 1558 1559 1559 1559 1558 1558 1557 1556 1555
1530 1530 1531 1532 1532 1533 1534 1534 1535 1536 1537 1538 1539 1539 1540 1541 1542 1543 1545 1546 1547 1548 1550 1552 1552 1553 1555 1556 1556 1557 1557 1557 1557 1557 1556 1555 1555 1554
1530 1531 1531 1532 1533 1534 1534 1535 1536 1537 1538 1539 1540 1540 1541 1542 1542 1543 1544 1545 1547 1548 1549 1550 1551 1552 1553 1554 1555 1555 1556 1556 1556 1555 1554 1554 1553 1552
1530 1531 1532 1532 1533 1534 1535 1536 1537 1538 1539 1540 1540 1541 1542 1543 1544 1544 1545 1546 1547 1548 1549 1550 1551 1551 1552 1553 1553 1554 1555 1555 1555 1554 1553 1552 1551 1550
1530 1531 1532 1533 1534 1535 1536 1537 1538 1539 1540 1540 1541 1542 1542 1543 1544 1545 1546 1547 1547 1548 1549 1550 1551 1551 1552 1552 1553 1553 1553 1553 1553 1552 1551 1550 1550 1549
1530 1530 1532 1533 1534 1535 1536 1537 1538 1539 1540 1541 1542 1542 1543 1544 1545 1546 1547 1548 1548 1549 1549 1550 1551 1551 1552 1552 1552 1552 1552 1552 1551 1550 1549 1548 1548 1546
1530 1530 1531 1533 1534 1535 1536 1537 1538 1539 1540 1541 1542 1543 1544 1545 1546 1546 1547 1548 1549 1549 1550 1550 1550 1551 1551 1551 1552 1551 1551 1550 1550 1549 1548 1547 1545 1544
1530 1531 1532 1533 1535 1536 1537 1537 1538 1539 1540 1541 1542 1543 1544 1545 1546 1546 1547 1548 1549 1549 1550 1550 1550 1550 1550 1550 1550 1550 1549 1548 1548 1547 1546 1545 1543 1541
1529 1530 1532 1533 1534 1535 1536 1537 1538 1539 1540 1541 1542 1543 1544 1545 1545 1546 1547 1547 1548 1549 1549 1549 1549 1549 1549 1549 1548 1548 1548 1547 1546 1545 1544 1542 1541 1539
1528 1530 1531 1532 1533 1535 1536 1537 1538 1538 1540 1541 1542 1542 1543 1544 1545 1545 1546 1547 1547 1548 1548 1548 1548 1548 1548 1548 1548 1547 1546 1546 1544 1543 1541 1539 1537 1536
1528 1529 1530 1531 1533 1534 1535 1536 1537 1538 1539 1540 1541 1542 1543 1544 1544 1545 1545 1546 1546 1546 1547 1547 1547 1547 1547 1546 1545 1545 1544 1543 1542 1541 1539 1538 1535 1532
1527 1528 1529 1530 1531 1532 1533 1534 1536 1537 1537 1538 1539 1540 1541 1542 1543 1544 1544 1545 1545 1545 1545 1546 1546 1545 1545 1545 1544 1543 1542 1540 1539 1537 1536 1534 1533 1530